Weather in Salaspils

Latvia     56°51′26″N   24°21′05″E
temp.,
°C
wind,
m/s
gust,
m/s
humid.,
%
clouds,
%
prec.,
mm/h
press.,
hPa
HPBL,
m
10 april, sat
sat1000:00+5ssw61464100 0.0 10101200
03:00+5ssw51171100 0.0 10101080
06:00+5ssw51078100 0.0 1010808
09:00+4sw4993100 0.2 1011775
12:00+6sw5978100 0.5 10121154
15:00+8wsw61147100 0.7 10142078
18:00+8w47330 0.0 10162074
21:00+3w22550 0.0 101813
11 april, sun
sun1100:00+1wsw116632 0.0 102010
03:000s117243 0.0 102110
06:00−1sse117367 0.0 102210
09:00+4se1254100 0.0 1023242
12:00+9se343998 0.0 1023958
15:00+11sse465996 0.0 10231271
18:00+9se4979100 0.0 1022626
21:00+8ese4138986 0.0 1021370
12 april, mon
mon1200:00+9se4158967 0.0 1021417
03:00+9sse5147763 0.0 1021437
06:00+7sse41474100 0.0 1020400
09:00+10sse51462100 0.0 1020583
12:00+13sse61145100 0.0 10201014
15:00+15sse61040100 0.0 10191517
18:00+13s4951100 0.0 10181227
21:00+11s41064100 0.0 1018720
13 april, tue
tue1300:00+9s3985100 0.5 1018508
03:00+8sse2692100 0.9 1017304
06:00+7ssw2496100 0.0 1017120
09:00+8wnw1293100 0.1 1017204
12:00+6nnw3593100 0.4 1018342
15:00+5nnw3691100 0.9 1019432
18:00+3nnw4889100 1.0 1019523
21:00+2nnw2798100 1.6 1020365
14 april, wed
wed1400:00+2nnw3893100 0.1 1020443
03:00+2nnw3797100 0.3 1020439
06:00+2nnw41197100 1.3 1018439
09:00+1nnw41297100 2.4 1017451
12:00+1nnw51297100 2.3 1017459
15:00+1nnw51397100 4.5 1017453
18:00+2n51397100 1.3 1017441
21:00+2n51295100 1.5 1018623